T5 EHLE-EHLE

Flight info

Callsign T5
Flight time N/A
Altitude 7000
Route EHTE DCT EHDL DCT EHVK DCT EHEH DCT EHBD DCT EHBK DCT EDLV DCT EHTW DCT EHTE
Aircraft DISC/L-SDFGR/S

Departure

Time 2026-04-30 20:11
Airport Lelystad Airport (EHLE)

Arrival

Time N/A
Airport Lelystad Airport (EHLE)
Time Latitude Longitude Altitude Speed Heading
2026-04-30 20:06 52.68549 5.91416 -2 ft 0 kts 251°
2026-04-30 20:10 52.68482 5.91142 13 ft 70 kts 249°
2026-04-30 20:11 52.68171 5.89863 869 ft 53 kts 219°
2026-04-30 20:11 52.67930 5.89741 809 ft 34 kts 117°
2026-04-30 20:11 52.68029 5.90137 755 ft 42 kts 76°
2026-04-30 20:12 52.68034 5.90913 692 ft 36 kts 76°
2026-04-30 20:12 52.68050 5.91267 681 ft 29 kts 101°
2026-04-30 20:12 52.68234 5.91550 545 ft 50 kts 70°
2026-04-30 20:13 52.68367 5.92009 595 ft 38 kts 81°
2026-04-30 20:13 52.68501 5.92411 580 ft 40 kts 82°
2026-04-30 20:13 52.68807 5.92477 441 ft 84 kts 303°
2026-04-30 20:13 52.68639 5.91706 155 ft 73 kts 213°
2026-04-30 20:14 52.68428 5.91022 1 ft 57 kts 241°
2026-04-30 20:14 52.68336 5.90572 -4 ft 16 kts 263°
2026-04-30 20:14 52.68335 5.90560 -5 ft 0 kts 267°
2026-04-30 20:18 52.68506 5.91701 -5 ft 0 kts 255°
2026-04-30 20:19 52.68430 5.91269 96 ft 80 kts 255°
2026-04-30 20:20 52.68349 5.90417 921 ft 72 kts 253°
2026-04-30 20:20 52.68256 5.89636 1275 ft 73 kts 243°
2026-04-30 20:20 52.68172 5.88852 1302 ft 63 kts 238°
2026-04-30 20:20 52.67970 5.88314 1275 ft 52 kts 197°
2026-04-30 20:21 52.67716 5.88017 1210 ft 38 kts 156°
2026-04-30 20:21 52.67407 5.88001 1129 ft 47 kts 151°
2026-04-30 20:21 52.67146 5.88102 1113 ft 35 kts 112°
2026-04-30 20:21 52.67159 5.88460 1114 ft 40 kts 51°
2026-04-30 20:22 52.67405 5.88722 1060 ft 46 kts 62°
2026-04-30 20:22 52.67664 5.89044 1026 ft 47 kts 65°
2026-04-30 20:22 52.67923 5.89402 989 ft 50 kts 63°
2026-04-30 20:22 52.68225 5.89655 1025 ft 63 kts 356°
2026-04-30 20:23 52.68464 5.88986 1024 ft 67 kts 253°
2026-04-30 20:23 52.68261 5.88663 1009 ft 32 kts 140°
2026-04-30 20:23 52.68279 5.88978 993 ft 42 kts 74°
2026-04-30 20:23 52.68444 5.89355 1003 ft 31 kts 82°
2026-04-30 20:24 52.68586 5.89648 967 ft 36 kts 68°
2026-04-30 20:24 52.68791 5.90001 767 ft 47 kts 64°
2026-04-30 20:24 52.68953 5.90370 592 ft 38 kts 79°
2026-04-30 20:24 52.69058 5.90743 453 ft 32 kts 85°
2026-04-30 20:25 52.68904 5.91431 356 ft 30 kts 122°
2026-04-30 20:25 52.68858 5.91897 247 ft 46 kts 111°
2026-04-30 20:26 52.68408 5.91011 1 ft 58 kts 244°
2026-04-30 20:27 45.73955 7.36653 1778 ft 0 kts 176°
2026-04-30 20:30 45.73807 7.35764 1798 ft 377 kts 89°
2026-04-30 20:30 45.73874 7.37208 3421 ft 73 kts 84°
2026-04-30 20:31 45.73791 7.38745 3542 ft 53 kts 66°
2026-04-30 20:32 45.74528 7.38301 3501 ft 55 kts 280°
2026-04-30 20:32 45.74707 7.37232 3476 ft 57 kts 283°
2026-04-30 20:33 45.74775 7.36673 3452 ft 58 kts 279°
2026-04-30 20:33 45.74842 7.35496 3406 ft 61 kts 254°
2026-04-30 20:33 45.74689 7.34893 3392 ft 62 kts 246°
2026-04-30 20:34 45.74313 7.33847 3274 ft 78 kts 234°
2026-04-30 20:35 45.73810 7.36055 1795 ft 0 kts 85°
2026-04-30 20:36 45.73810 7.36054 1796 ft 0 kts 85°
2026-04-30 20:37 45.73813 7.36069 1795 ft 9 kts 78°
2026-04-30 20:37 45.73831 7.36339 1787 ft 49 kts 86°
2026-04-30 20:37 45.73878 7.36911 1841 ft 60 kts 81°
2026-04-30 20:37 45.73933 7.37443 2006 ft 54 kts 85°
2026-04-30 20:38 45.73959 7.37998 2158 ft 49 kts 82°
2026-04-30 20:38 45.73989 7.38571 2206 ft 62 kts 87°
2026-04-30 20:38 45.73954 7.39177 2362 ft 59 kts 98°
2026-04-30 20:39 45.73887 7.40458 2708 ft 57 kts 117°
2026-04-30 20:39 45.73568 7.40778 2848 ft 58 kts 171°
2026-04-30 20:39 45.73230 7.40558 2958 ft 64 kts 244°
2026-04-30 20:40 45.73393 7.39067 3052 ft 78 kts 298°
2026-04-30 20:40 45.73664 7.38339 3094 ft 83 kts 294°
2026-04-30 20:40 45.73888 7.37574 3111 ft 86 kts 291°
2026-04-30 20:41 45.74507 7.36418 2825 ft 68 kts 315°
2026-04-30 20:41 45.74776 7.35970 2784 ft 52 kts 297°
2026-04-30 20:41 45.74825 7.35476 2733 ft 54 kts 245°
2026-04-30 20:41 45.74537 7.34996 2560 ft 62 kts 202°
2026-04-30 20:42 45.74110 7.34852 2291 ft 63 kts 162°
2026-04-30 20:42 45.73803 7.35118 2092 ft 50 kts 115°
2026-04-30 20:42 45.73808 7.36016 1820 ft 39 kts 88°
2026-04-30 20:43 45.73832 7.36360 1786 ft 26 kts 91°
2026-04-30 20:43 45.73839 7.36520 1782 ft 10 kts 86°
2026-04-30 20:43 45.73860 7.36538 1782 ft 4 kts 272°